| time (UTC) | temp F | wind direction | speed knots | gust knots | rain 1hr in | rain 24hr in | rain mn in | humidity % | barometer mb |
| 20260831030656 | 66 | 128 | 0.9 | 3.5 | 0.00 | 0.13 | 0.13 | 97 | 1014.4 |
| 20260831025929 | 66 | 140 | 1.7 | 3.5 | 0.00 | 0.13 | 0.13 | 97 | 1014.3 |
| 20260831025429 | 66 | 176 | 0.9 | 2.6 | 0.00 | 0.13 | 0.13 | 97 | 1014.3 |
| 20260831024929 | 66 | 171 | 0.9 | 2.6 | 0.00 | 0.13 | 0.13 | 97 | 1014.4 |
| 20260831024426 | 66 | 130 | 0.9 | 5.2 | 0.00 | 0.13 | 0.13 | 97 | 1014.5 |
| 20260831023926 | 66 | 95 | 2.6 | 5.2 | 0.00 | 0.13 | 0.13 | 97 | 1014.4 |
| 20260831023427 | 66 | 82 | 0.9 | 2.6 | 0.00 | 0.13 | 0.13 | 97 | 1014.3 |
| 20260831022926 | 66 | 71 | 0.9 | 1.7 | 0.00 | 0.13 | 0.13 | 97 | 1014.4 |
| 20260831022427 | 66 | 85 | 0.9 | 1.7 | 0.00 | 0.13 | 0.13 | 97 | 1014.4 |
| 20260831021927 | 66 | 123 | 0.0 | 2.6 | 0.00 | 0.13 | 0.13 | 97 | 1014.4 |
| 20260831021651 | 66 | 165 | 0.9 | 4.3 | 0.00 | 0.13 | 0.13 | 97 | 1014.4 |
| 20260831021158 | 66 | 130 | 1.7 | 4.3 | 0.00 | 0.13 | 0.13 | 97 | 1014.3 |
| 20260831020422 | 66 | 68 | 0.9 | 4.3 | 0.00 | 0.13 | 0.13 | 97 | 1014.4 |
| 20260831015921 | 66 | 86 | 2.6 | 5.2 | 0.00 | 0.13 | 0.13 | 97 | 1014.4 |
| 20260831015420 | 66 | 87 | 1.7 | 5.2 | 0.00 | 0.13 | 0.13 | 97 | 1014.4 |
| 20260831015148 | 66 | 111 | 2.6 | 4.3 | 0.00 | 0.13 | 0.13 | 96 | 1014.4 |
| 20260831014418 | 66 | 65 | 1.7 | 2.6 | 0.00 | 0.13 | 0.13 | 97 | 1014.4 |
| 20260831013921 | 66 | 80 | 0.0 | 2.6 | 0.00 | 0.13 | 0.13 | 97 | 1014.3 |
| 20260831013416 | 66 | 93 | 0.0 | 3.5 | 0.00 | 0.13 | 0.13 | 96 | 1014.2 |
| 20260831012916 | 66 | 102 | 0.9 | 3.5 | 0.00 | 0.13 | 0.13 | 96 | 1014.0 |
| 20260831012414 | 66 | 103 | 1.7 | 4.3 | 0.00 | 0.13 | 0.13 | 96 | 1014.0 |
| 20260831011913 | 66 | 128 | 0.9 | 4.3 | 0.00 | 0.13 | 0.13 | 96 | 1014.0 |
| 20260831011412 | 66 | 120 | 1.7 | 3.5 | 0.00 | 0.13 | 0.13 | 96 | 1014.2 |
| 20260831011137 | 66 | 92 | 1.7 | 2.6 | 0.00 | 0.13 | 0.13 | 96 | 1014.0 |
| 20260831010639 | 66 | 102 | 0.9 | 1.7 | 0.00 | 0.13 | 0.13 | 96 | 1014.1 |
| 20260831005912 | 66 | 140 | 0.0 | 0.9 | 0.00 | 0.13 | 0.13 | 96 | 1014.2 |
| 20260831004911 | 66 | 87 | 0.0 | 5.2 | 0.00 | 0.13 | 0.13 | 96 | 1014.0 |
| 20260831004410 | 66 | 117 | 1.7 | 5.2 | 0.00 | 0.13 | 0.13 | 96 | 1013.7 |
| 20260831003410 | 66 | 96 | 1.7 | 4.3 | 0.00 | 0.13 | 0.13 | 96 | 1013.9 |
| 20260831002909 | 66 | 151 | 1.7 | 4.3 | 0.00 | 0.13 | 0.13 | 96 | 1013.8 |
| 20260831002409 | 66 | 89 | 2.6 | 4.3 | 0.00 | 0.13 | 0.13 | 96 | 1013.7 |
| 20260831002140 | 66 | 93 | 2.6 | 4.3 | 0.00 | 0.13 | 0.13 | 96 | 1013.7 |
| 20260831001406 | 66 | 69 | 1.7 | 4.3 | 0.00 | 0.13 | 0.13 | 96 | 1013.6 |
| 20260831000906 | 66 | 117 | 2.6 | 5.2 | 0.00 | 0.13 | 0.13 | 95 | 1013.6 |
| 20260831000405 | 67 | 128 | 2.6 | 5.2 | 0.00 | 0.13 | 0.13 | 95 | 1013.6 |
| 20260830235905 | 67 | 73 | 2.6 | 5.2 | 0.00 | 0.13 | 0.13 | 95 | 1013.6 |
| 20260830235404 | 67 | 102 | 2.6 | 5.2 | 0.00 | 0.13 | 0.13 | 95 | 1013.5 |
| 20260830234905 | 67 | 142 | 1.7 | 6.1 | 0.00 | 0.13 | 0.13 | 95 | 1013.6 |
| 20260830234629 | 67 | 97 | 3.5 | 6.1 | 0.00 | 0.13 | 0.13 | 95 | 1013.6 |
| 20260830233905 | 67 | 138 | 1.7 | 5.2 | 0.00 | 0.13 | 0.13 | 95 | 1013.5 |
| 20260830233405 | 67 | 116 | 0.9 | 5.2 | 0.00 | 0.13 | 0.13 | 94 | 1013.7 |
| 20260830232909 | 67 | 100 | 2.6 | 5.2 | 0.00 | 0.13 | 0.13 | 94 | 1013.6 |
| 20260830232405 | 67 | 89 | 1.7 | 4.3 | 0.00 | 0.13 | 0.13 | 94 | 1013.8 |
| 20260830231904 | 67 | 80 | 1.7 | 3.5 | 0.00 | 0.13 | 0.13 | 94 | 1014.0 |
| 20260830231404 | 67 | 95 | 0.9 | 5.2 | 0.00 | 0.13 | 0.13 | 94 | 1014.1 |
| 20260830230903 | 67 | 80 | 0.9 | 5.2 | 0.00 | 0.13 | 0.13 | 94 | 1014.0 |
| 20260830230630 | 68 | 55 | 2.6 | 3.5 | 0.00 | 0.13 | 0.13 | 94 | 1014.1 |
| 20260830225904 | 68 | 137 | 0.9 | 4.3 | 0.00 | 0.13 | 0.13 | 95 | 1014.2 |
| 20260830225403 | 68 | 114 | 3.5 | 4.3 | 0.00 | 0.13 | 0.13 | 95 | 1014.2 |
| 20260830224903 | 68 | 71 | 1.7 | 3.5 | 0.00 | 0.13 | 0.13 | 95 | 1014.2 |
| 20260830224403 | 68 | 90 | 0.9 | 3.5 | 0.00 | 0.13 | 0.13 | 95 | 1014.2 |
| 20260830223903 | 68 | 120 | 1.7 | 3.5 | 0.00 | 0.13 | 0.13 | 95 | 1014.2 |
| 20260830223403 | 67 | 126 | 1.7 | 3.5 | 0.00 | 0.13 | 0.13 | 95 | 1014.3 |
| 20260830222901 | 67 | 89 | 1.7 | 3.5 | 0.00 | 0.13 | 0.13 | 95 | 1014.3 |
| 20260830222402 | 67 | 85 | 1.7 | 3.5 | 0.00 | 0.13 | 0.13 | 95 | 1014.3 |
| 20260830221900 | 67 | 86 | 0.9 | 3.5 | 0.00 | 0.13 | 0.13 | 95 | 1014.4 |
| 20260830221358 | 67 | 86 | 1.7 | 3.5 | 0.00 | 0.13 | 0.13 | 95 | 1014.3 |
| 20260830220856 | 67 | 117 | 1.7 | 3.5 | 0.00 | 0.13 | 0.13 | 95 | 1014.3 |
| 20260830220356 | 67 | 113 | 0.0 | 1.7 | 0.00 | 0.13 | 0.13 | 95 | 1014.3 |
| 20260830220124 | 67 | 123 | 0.9 | 2.6 | 0.00 | 0.13 | 0.13 | 95 | 1014.3 |
| 20260830215358 | 67 | 89 | 0.9 | 4.3 | 0.00 | 0.13 | 0.13 | 95 | 1014.3 |
| 20260830214856 | 67 | 127 | 0.9 | 5.2 | 0.00 | 0.13 | 0.13 | 95 | 1014.3 |
| 20260830213856 | 67 | 103 | 2.6 | 7.8 | 0.00 | 0.13 | 0.13 | 94 | 1014.1 |
| 20260830213354 | 67 | 89 | 3.5 | 7.8 | 0.00 | 0.13 | 0.13 | 94 | 1014.0 |
| 20260830212855 | 67 | 102 | 4.3 | 7.8 | 0.00 | 0.13 | 0.13 | 94 | 1013.9 |
| 20260830212354 | 68 | 85 | 2.6 | 7.8 | 0.00 | 0.13 | 0.13 | 93 | 1013.9 |
| 20260830211853 | 68 | 116 | 2.6 | 5.2 | 0.00 | 0.13 | 0.13 | 93 | 1014.0 |
| 20260830211353 | 68 | 104 | 3.5 | 5.2 | 0.00 | 0.13 | 0.13 | 93 | 1013.9 |
| 20260830210851 | 68 | 80 | 2.6 | 6.1 | 0.00 | 0.13 | 0.13 | 93 | 1013.9 |
| 20260830210351 | 68 | 110 | 1.7 | 6.1 | 0.00 | 0.13 | 0.13 | 92 | 1013.9 |
| 20260830205852 | 69 | 106 | 1.7 | 5.2 | 0.00 | 0.13 | 0.13 | 92 | 1013.9 |
| 20260830205349 | 69 | 99 | 3.5 | 5.2 | 0.00 | 0.13 | 0.13 | 91 | 1013.9 |
| 20260830204852 | 69 | 104 | 2.6 | 5.2 | 0.00 | 0.13 | 0.13 | 92 | 1013.8 |
| 20260830204612 | 70 | 130 | 2.6 | 4.3 | 0.00 | 0.13 | 0.13 | 91 | 1013.8 |
| 20260830203849 | 70 | 40 | 1.7 | 4.3 | 0.00 | 0.13 | 0.13 | 91 | 1013.8 |
| 20260830203616 | 70 | 85 | 1.7 | 5.2 | 0.00 | 0.13 | 0.13 | 91 | 1013.9 |
| 20260830202953 | 70 | 76 | 2.6 | 5.2 | 0.00 | 0.13 | 0.13 | 91 | 1013.9 |
| 20260830202348 | 70 | 71 | 2.6 | 6.1 | 0.00 | 0.13 | 0.13 | 91 | 1013.8 |
| 20260830201848 | 70 | 78 | 3.5 | 6.1 | 0.00 | 0.13 | 0.13 | 90 | 1013.8 |
| 20260830201348 | 71 | 83 | 2.6 | 5.2 | 0.00 | 0.13 | 0.13 | 90 | 1013.9 |
| 20260830200846 | 71 | 95 | 1.7 | 4.3 | 0.00 | 0.13 | 0.13 | 90 | 1013.8 |
| 20260830200346 | 71 | 104 | 3.5 | 4.3 | 0.00 | 0.13 | 0.13 | 91 | 1013.7 |
| 20260830195846 | 70 | 75 | 2.6 | 4.3 | 0.00 | 0.13 | 0.13 | 91 | 1013.7 |
| 20260830195346 | 70 | 59 | 2.6 | 4.3 | 0.00 | 0.13 | 0.13 | 90 | 1013.8 |
| 20260830194844 | 70 | 58 | 0.9 | 3.5 | 0.00 | 0.13 | 0.13 | 91 | 1013.8 |
| 20260830194346 | 70 | 102 | 0.9 | 4.3 | 0.00 | 0.13 | 0.13 | 90 | 1013.8 |
| 20260830193848 | 70 | 100 | 1.7 | 4.3 | 0.00 | 0.13 | 0.13 | 91 | 1013.9 |
| 20260830193348 | 70 | 110 | 0.9 | 2.6 | 0.00 | 0.13 | 0.13 | 91 | 1013.9 |
| 20260830192845 | 69 | 99 | 0.9 | 2.6 | 0.00 | 0.13 | 0.13 | 91 | 1014.0 |
| 20260830192346 | 69 | 162 | 0.0 | 5.2 | 0.00 | 0.13 | 0.13 | 91 | 1014.0 |
| 20260830191845 | 69 | 165 | 0.9 | 5.2 | 0.00 | 0.13 | 0.13 | 91 | 1013.9 |
| 20260830191348 | 69 | 164 | 0.9 | 2.6 | 0.00 | 0.13 | 0.13 | 91 | 1014.0 |
| 20260830190845 | 69 | 185 | 0.0 | 2.6 | 0.00 | 0.13 | 0.13 | 91 | 1014.1 |
| 20260830190345 | 69 | 152 | 1.7 | 3.5 | 0.00 | 0.13 | 0.13 | 91 | 1014.1 |
| 20260830190105 | 69 | 104 | 1.7 | 3.5 | 0.00 | 0.13 | 0.13 | 90 | 1014.1 |
| 20260830185345 | 69 | 149 | 0.9 | 3.5 | 0.00 | 0.13 | 0.13 | 91 | 1014.1 |
| 20260830184844 | 69 | 127 | 0.0 | 3.5 | 0.00 | 0.13 | 0.13 | 91 | 1014.1 |
| 20260830184345 | 69 | 134 | 1.7 | 2.6 | 0.00 | 0.13 | 0.13 | 91 | 1014.2 |
| 20260830183843 | 69 | 147 | 0.0 | 2.6 | 0.00 | 0.13 | 0.13 | 91 | 1014.3 |
| 20260830183344 | 69 | 106 | 1.7 | 2.6 | 0.00 | 0.13 | 0.13 | 91 | 1014.2 |
| 20260830182843 | 69 | 152 | 0.0 | 3.5 | 0.00 | 0.13 | 0.13 | 91 | 1014.1 |
| 20260830182344 | 69 | 104 | 0.9 | 3.5 | 0.00 | 0.13 | 0.13 | 90 | 1014.3 |
| 20260830181843 | 69 | 172 | 1.7 | 3.5 | 0.00 | 0.13 | 0.13 | 90 | 1014.2 |
| 20260830181344 | 69 | 224 | 0.9 | 4.3 | 0.00 | 0.13 | 0.13 | 90 | 1014.1 |
| 20260830180843 | 69 | 145 | 0.9 | 4.3 | 0.00 | 0.13 | 0.13 | 91 | 1014.2 |
| 20260830180344 | 70 | 148 | 1.7 | 3.5 | 0.00 | 0.13 | 0.13 | 91 | 1014.1 |
| 20260830180112 | 70 | 144 | 0.9 | 3.5 | 0.00 | 0.13 | 0.13 | 91 | 1014.1 |
| 20260830175342 | 69 | 175 | 1.7 | 4.3 | 0.00 | 0.13 | 0.13 | 93 | 1014.1 |
| 20260830174841 | 69 | 137 | 0.9 | 4.3 | 0.00 | 0.13 | 0.13 | 93 | 1014.1 |
| 20260830174337 | 68 | 196 | 1.7 | 3.5 | 0.00 | 0.13 | 0.13 | 93 | 1014.2 |
| 20260830173835 | 68 | 166 | 0.0 | 3.5 | 0.00 | 0.13 | 0.13 | 93 | 1014.1 |
| 20260830173334 | 68 | 186 | 0.9 | 4.3 | 0.00 | 0.13 | 0.13 | 93 | 1014.2 |
| 20260830172834 | 68 | 206 | 1.7 | 4.3 | 0.00 | 0.13 | 0.13 | 93 | 1014.2 |
| 20260830172334 | 68 | 189 | 2.6 | 4.3 | 0.00 | 0.13 | 0.13 | 93 | 1014.2 |
| 20260830171833 | 68 | 159 | 0.9 | 3.5 | 0.00 | 0.13 | 0.13 | 93 | 1014.1 |
| 20260830171818 | 68 | 171 | 0.9 | 2.6 | 0.00 | 0.13 | 0.13 | 93 | 1014.1 |
| 20260830170833 | 68 | 248 | 0.9 | 3.5 | 0.00 | 0.13 | 0.13 | 93 | 1014.2 |
| 20260830170331 | 68 | 204 | 0.9 | 3.5 | 0.00 | 0.13 | 0.13 | 93 | 1014.1 |
| 20260830165834 | 68 | 128 | 0.9 | 5.2 | 0.00 | 0.13 | 0.13 | 93 | 1014.1 |
| 20260830165332 | 68 | 188 | 1.7 | 6.1 | 0.00 | 0.13 | 0.13 | 93 | 1014.1 |
| 20260830164832 | 68 | 175 | 2.6 | 6.1 | 0.00 | 0.13 | 0.13 | 93 | 1014.1 |
| 20260830164331 | 69 | 149 | 0.9 | 5.2 | 0.00 | 0.13 | 0.13 | 96 | 1014.1 |
| 20260830164119 | 67 | 204 | 1.7 | 4.3 | 0.00 | 0.13 | 0.13 | 95 | 1014.2 |
| 20260830162914 | 67 | 157 | 1.7 | 3.5 | 0.00 | 0.13 | 0.13 | 95 | 1014.5 |
| 20260830162333 | 67 | 159 | 0.9 | 3.5 | 0.00 | 0.13 | 0.13 | 95 | 1014.5 |
| 20260830161831 | 66 | 161 | 1.7 | 4.3 | 0.00 | 0.13 | 0.13 | 95 | 1014.6 |
| 20260830161640 | 66 | 189 | 0.9 | 4.3 | 0.00 | 0.13 | 0.13 | 95 | 1014.7 |
| 20260830160830 | 66 | 159 | 0.9 | 4.3 | 0.00 | 0.13 | 0.13 | 95 | 1014.7 |
| 20260830160458 | 66 | 151 | 0.9 | 5.2 | 0.00 | 0.13 | 0.13 | 95 | 1014.5 |
| 20260830155349 | 66 | 200 | 0.9 | 3.5 | 0.00 | 0.13 | 0.13 | 96 | 1014.6 |
| 20260830154829 | 66 | 127 | 0.9 | 4.3 | 0.00 | 0.13 | 0.13 | 96 | 1014.5 |
| 20260830154330 | 66 | 175 | 1.7 | 4.3 | 0.00 | 0.13 | 0.13 | 96 | 1014.6 |
| 20260830154100 | 66 | 197 | 1.7 | 3.5 | 0.00 | 0.13 | 0.13 | 96 | 1014.7 |
| 20260830153326 | 66 | 182 | 0.9 | 5.2 | 0.00 | 0.13 | 0.13 | 96 | 1014.6 |
| 20260830152825 | 66 | 152 | 2.6 | 5.2 | 0.00 | 0.13 | 0.13 | 96 | 1014.7 |
| 20260830152324 | 66 | 140 | 1.7 | 7.8 | 0.00 | 0.13 | 0.13 | 96 | 1014.7 |
| 20260830151900 | 65 | 214 | 1.7 | 7.8 | 0.00 | 0.13 | 0.13 | 96 | 1014.8 |
| 20260830151322 | 65 | 144 | 1.7 | 5.2 | 0.00 | 0.13 | 0.13 | 96 | 1014.8 |
| 20260830150823 | 65 | 223 | 0.9 | 5.2 | 0.00 | 0.13 | 0.13 | 97 | 1014.7 |
| 20260830150322 | 65 | 169 | 2.6 | 5.2 | 0.00 | 0.13 | 0.13 | 97 | 1014.7 |
| 20260830150047 | 65 | 175 | 2.6 | 5.2 | 0.00 | 0.13 | 0.13 | 96 | 1014.7 |
| 20260830145556 | 65 | 190 | 1.7 | 6.1 | 0.00 | 0.13 | 0.13 | 97 | 1014.8 |
| 20260830144822 | 65 | 227 | 3.5 | 6.1 | 0.00 | 0.13 | 0.13 | 97 | 1014.7 |
| 20260830144327 | 65 | 162 | 1.7 | 5.2 | 0.00 | 0.13 | 0.13 | 97 | 1014.7 |
| 20260830143823 | 65 | 157 | 2.6 | 6.1 | 0.00 | 0.13 | 0.13 | 97 | 1014.5 |
| 20260830143353 | 65 | 158 | 2.6 | 6.1 | 0.00 | 0.13 | 0.13 | 97 | 1014.5 |
| 20260830142822 | 65 | 203 | 3.5 | 6.1 | 0.00 | 0.13 | 0.13 | 97 | 1014.5 |
| 20260830142321 | 65 | 142 | 1.7 | 5.2 | 0.01 | 0.13 | 0.13 | 97 | 1014.5 |
| 20260830141815 | 64 | 179 | 0.9 | 6.1 | 0.01 | 0.13 | 0.13 | 97 | 1014.5 |
| 20260830141317 | 64 | 278 | 1.7 | 9.6 | 0.01 | 0.13 | 0.13 | 96 | 1014.6 |
| 20260830140815 | 64 | 236 | 2.6 | 9.6 | 0.01 | 0.13 | 0.13 | 96 | 1014.5 |
| 20260830140314 | 64 | 197 | 1.7 | 9.6 | 0.01 | 0.13 | 0.13 | 96 | 1014.5 |
| 20260830135813 | 64 | 157 | 2.6 | 8.7 | 0.01 | 0.12 | 0.13 | 96 | 1014.6 |
| 20260830135312 | 64 | 192 | 3.5 | 8.7 | 0.01 | 0.12 | 0.13 | 96 | 1014.5 |
| 20260830134812 | 64 | 162 | 4.3 | 8.7 | 0.01 | 0.12 | 0.13 | 96 | 1014.7 |
| 20260830134310 | 64 | 141 | 2.6 | 8.7 | 0.01 | 0.12 | 0.13 | 96 | 1014.6 |
| 20260830133810 | 64 | 144 | 3.5 | 7.8 | 0.01 | 0.12 | 0.13 | 96 | 1014.7 |
| 20260830133309 | 64 | 157 | 3.5 | 7.8 | 0.01 | 0.12 | 0.13 | 96 | 1014.8 |
| 20260830133043 | 64 | 158 | 1.7 | 8.7 | 0.01 | 0.12 | 0.13 | 96 | 1014.9 |
| 20260830132310 | 64 | 171 | 2.6 | 8.7 | 0.01 | 0.12 | 0.12 | 96 | 1014.9 |
| 20260830131809 | 64 | 124 | 3.5 | 7.8 | 0.01 | 0.12 | 0.12 | 96 | 1015.1 |
| 20260830131309 | 64 | 244 | 1.7 | 7.8 | 0.01 | 0.12 | 0.12 | 96 | 1015.2 |
| 20260830130809 | 64 | 152 | 1.7 | 7.8 | 0.01 | 0.12 | 0.12 | 96 | 1015.1 |
| 20260830130307 | 64 | 157 | 1.7 | 7.8 | 0.01 | 0.12 | 0.12 | 96 | 1015.1 |
| 20260830125805 | 64 | 196 | 1.7 | 7.8 | 0.01 | 0.11 | 0.12 | 96 | 1014.9 |
| 20260830125306 | 64 | 162 | 2.6 | 7.8 | 0.01 | 0.11 | 0.12 | 96 | 1014.9 |
| 20260830124809 | 63 | 168 | 1.7 | 7.8 | 0.01 | 0.11 | 0.12 | 96 | 1014.9 |
| 20260830124306 | 63 | 103 | 3.5 | 7.8 | 0.01 | 0.11 | 0.12 | 96 | 1014.8 |
| 20260830123805 | 63 | 168 | 2.6 | 7.8 | 0.01 | 0.11 | 0.12 | 96 | 1014.9 |
| 20260830123304 | 63 | 185 | 3.5 | 7.8 | 0.01 | 0.11 | 0.12 | 96 | 1014.9 |
| 20260830122803 | 63 | 161 | 1.7 | 7.8 | 0.01 | 0.11 | 0.11 | 96 | 1014.9 |
| 20260830122306 | 63 | 182 | 2.6 | 8.7 | 0.00 | 0.11 | 0.11 | 96 | 1014.9 |
| 20260830121803 | 63 | 155 | 4.3 | 8.7 | 0.01 | 0.11 | 0.11 | 96 | 1014.9 |
| 20260830121304 | 63 | 179 | 3.5 | 7.8 | 0.01 | 0.11 | 0.11 | 96 | 1014.9 |
| 20260830120752 | 63 | 186 | 2.6 | 7.8 | 0.02 | 0.11 | 0.11 | 96 | 1014.9 |
| 20260830120251 | 63 | 189 | 2.6 | 7.8 | 0.02 | 0.11 | 0.11 | 96 | 1014.9 |
| 20260830115754 | 63 | 190 | 2.6 | 6.1 | 0.02 | 0.09 | 0.11 | 96 | 1015.2 |
| 20260830115309 | 63 | 197 | 2.6 | 6.1 | 0.02 | 0.09 | 0.11 | 96 | 1015.1 |
| 20260830115115 | 63 | 175 | 1.7 | 5.2 | 0.02 | 0.09 | 0.11 | 96 | 1015.2 |
| 20260830114525 | 63 | 166 | 3.5 | 5.2 | 0.02 | 0.09 | 0.11 | 96 | 1014.9 |
| 20260830113749 | 63 | 140 | 1.7 | 5.2 | 0.02 | 0.09 | 0.11 | 96 | 1014.8 |
| 20260830113249 | 63 | 111 | 1.7 | 4.3 | 0.02 | 0.09 | 0.11 | 96 | 1014.8 |
| 20260830112749 | 63 | 104 | 2.6 | 4.3 | 0.02 | 0.09 | 0.11 | 96 | 1014.9 |
| 20260830112513 | 63 | 176 | 0.9 | 3.5 | 0.02 | 0.09 | 0.11 | 96 | 1014.8 |
| 20260830111749 | 63 | 200 | 1.7 | 3.5 | 0.01 | 0.09 | 0.10 | 96 | 1014.9 |
| 20260830111246 | 63 | 195 | 1.7 | 6.1 | 0.01 | 0.09 | 0.10 | 96 | 1015.1 |
| 20260830110744 | 63 | 230 | 1.7 | 6.1 | 0.00 | 0.09 | 0.09 | 96 | 1015.1 |
| 20260830110513 | 63 | 250 | 1.7 | 5.2 | 0.00 | 0.09 | 0.09 | 96 | 1015.2 |
| 20260830110012 | 63 | 217 | 2.6 | 5.2 | 0.00 | 0.09 | 0.09 | 96 | 1014.9 |
| 20260830105244 | 63 | 202 | 0.9 | 5.2 | 0.00 | 0.09 | 0.09 | 96 | 1014.8 |
| 20260830104744 | 63 | 138 | 0.9 | 4.3 | 0.00 | 0.09 | 0.09 | 96 | 1014.7 |
| 20260830104243 | 63 | 175 | 0.0 | 2.6 | 0.00 | 0.09 | 0.09 | 96 | 1014.6 |
| 20260830103741 | 63 | 210 | 0.9 | 2.6 | 0.00 | 0.09 | 0.09 | 96 | 1014.7 |
| 20260830103242 | 64 | 159 | 0.9 | 4.3 | 0.00 | 0.09 | 0.09 | 96 | 1014.5 |
| 20260830102741 | 64 | 166 | 0.9 | 4.3 | 0.00 | 0.09 | 0.09 | 96 | 1014.4 |
| 20260830102239 | 64 | 186 | 1.7 | 4.3 | 0.00 | 0.09 | 0.09 | 96 | 1014.4 |
| 20260830101737 | 64 | 141 | 1.7 | 3.5 | 0.00 | 0.09 | 0.09 | 96 | 1014.4 |
| 20260830101236 | 64 | 161 | 1.7 | 4.3 | 0.00 | 0.09 | 0.09 | 96 | 1014.4 |
| 20260830100741 | 64 | 145 | 0.0 | 4.3 | 0.00 | 0.09 | 0.09 | 96 | 1014.3 |
| 20260830100237 | 64 | 171 | 1.7 | 6.1 | 0.00 | 0.09 | 0.09 | 96 | 1014.4 |
| 20260830095736 | 64 | 175 | 2.6 | 6.1 | 0.00 | 0.09 | 0.09 | 96 | 1014.3 |
| 20260830095501 | 64 | 161 | 1.7 | 6.1 | 0.00 | 0.09 | 0.09 | 96 | 1014.4 |
| 20260830094735 | 64 | 183 | 2.6 | 6.1 | 0.00 | 0.09 | 0.09 | 96 | 1014.3 |
| 20260830094235 | 64 | 192 | 2.6 | 7.8 | 0.00 | 0.09 | 0.09 | 96 | 1014.4 |
| 20260830093735 | 64 | 183 | 3.5 | 7.8 | 0.00 | 0.09 | 0.09 | 96 | 1014.4 |
| 20260830093233 | 64 | 204 | 2.6 | 6.1 | 0.00 | 0.09 | 0.09 | 96 | 1014.4 |
| 20260830092733 | 64 | 161 | 1.7 | 6.1 | 0.00 | 0.09 | 0.09 | 96 | 1014.5 |
| 20260830092232 | 64 | 214 | 2.6 | 7.8 | 0.00 | 0.09 | 0.09 | 96 | 1014.5 |
| 20260830091732 | 64 | 173 | 1.7 | 7.8 | 0.00 | 0.09 | 0.09 | 96 | 1014.6 |
| 20260830091233 | 64 | 182 | 1.7 | 6.1 | 0.00 | 0.09 | 0.09 | 96 | 1014.7 |
| 20260830090730 | 64 | 159 | 2.6 | 6.1 | 0.00 | 0.09 | 0.09 | 96 | 1014.7 |
| 20260830090502 | 64 | 155 | 2.6 | 6.1 | 0.00 | 0.09 | 0.09 | 96 | 1014.8 |
| 20260830085732 | 64 | 209 | 2.6 | 5.2 | 0.00 | 0.09 | 0.09 | 96 | 1014.9 |
| 20260830085504 | 64 | 181 | 2.6 | 6.1 | 0.00 | 0.09 | 0.09 | 96 | 1014.9 |
| 20260830085008 | 64 | 189 | 2.6 | 6.1 | 0.00 | 0.09 | 0.09 | 96 | 1014.9 |
| 20260830084232 | 64 | 181 | 2.6 | 6.1 | 0.00 | 0.09 | 0.09 | 96 | 1015.1 |
| 20260830083732 | 64 | 210 | 1.7 | 4.3 | 0.00 | 0.09 | 0.09 | 96 | 1015.3 |
| 20260830083233 | 64 | 200 | 0.9 | 3.5 | 0.00 | 0.09 | 0.09 | 96 | 1015.4 |
| 20260830082733 | 64 | 175 | 1.7 | 5.2 | 0.00 | 0.09 | 0.09 | 96 | 1015.3 |
| 20260830082234 | 64 | 199 | 0.9 | 5.2 | 0.00 | 0.09 | 0.09 | 96 | 1015.5 |
| 20260830081733 | 64 | 175 | 1.7 | 4.3 | 0.00 | 0.09 | 0.09 | 96 | 1015.5 |
| 20260830081234 | 64 | 224 | 2.6 | 4.3 | 0.01 | 0.09 | 0.09 | 96 | 1015.5 |
| 20260830080736 | 64 | 185 | 1.7 | 4.3 | 0.02 | 0.09 | 0.09 | 96 | 1015.4 |
| 20260830080235 | 64 | 172 | 0.9 | 4.3 | 0.02 | 0.09 | 0.09 | 96 | 1015.4 |
| 20260830075736 | 64 | 137 | 0.9 | 4.3 | 0.02 | 0.07 | 0.09 | 96 | 1015.5 |
| 20260830075235 | 64 | 179 | 1.7 | 5.2 | 0.02 | 0.07 | 0.09 | 96 | 1015.6 |
| 20260830074733 | 64 | 237 | 2.6 | 5.2 | 0.02 | 0.07 | 0.09 | 96 | 1015.8 |
| 20260830074233 | 64 | 216 | 2.6 | 4.3 | 0.02 | 0.07 | 0.09 | 96 | 1015.8 |
| 20260830073732 | 64 | 209 | 1.7 | 4.3 | 0.03 | 0.07 | 0.09 | 96 | 1015.8 |
| 20260830073232 | 64 | 240 | 2.6 | 5.2 | 0.03 | 0.07 | 0.09 | 96 | 1015.8 |
| 20260830072733 | 64 | 259 | 0.9 | 5.2 | 0.04 | 0.07 | 0.09 | 96 | 1015.8 |
| 20260830072233 | 64 | 226 | 1.7 | 5.2 | 0.04 | 0.07 | 0.09 | 95 | 1015.9 |
| 20260830071732 | 64 | 196 | 2.6 | 6.1 | 0.04 | 0.07 | 0.09 | 95 | 1015.9 |
| 20260830071459 | 64 | 212 | 2.6 | 6.1 | 0.05 | 0.07 | 0.08 | 95 | 1015.9 |
| 20260830070730 | 64 | 245 | 2.6 | 6.1 | 0.04 | 0.07 | 0.07 | 95 | 1016.1 |
| 20260830070456 | 64 | 279 | 2.6 | 6.1 | 0.05 | 0.07 | 0.07 | 95 | 1016.3 |
| 20260830065726 | 64 | 254 | 3.5 | 8.7 | 0.05 | 0.02 | 0.07 | 95 | 1016.3 |
| 20260830065227 | 64 | 278 | 5.2 | 8.7 | 0.05 | 0.02 | 0.07 | 95 | 1016.4 |
| 20260830064726 | 64 | 271 | 4.3 | 11.3 | 0.05 | 0.02 | 0.07 | 95 | 1016.4 |
| 20260830064225 | 64 | 250 | 4.3 | 11.3 | 0.05 | 0.02 | 0.06 | 95 | 1016.4 |
| 20260830063726 | 65 | 261 | 4.3 | 7.8 | 0.04 | 0.02 | 0.06 | 95 | 1016.4 |
| 20260830063451 | 65 | 267 | 3.5 | 8.7 | 0.04 | 0.02 | 0.06 | 95 | 1016.5 |
| 20260830062723 | 65 | 288 | 2.6 | 8.7 | 0.03 | 0.02 | 0.05 | 95 | 1016.5 |
| 20260830062449 | 65 | 261 | 1.7 | 6.1 | 0.03 | 0.02 | 0.05 | 95 | 1016.6 |
| 20260830061724 | 65 | 285 | 2.6 | 6.1 | 0.02 | 0.02 | 0.04 | 95 | 1016.7 |
| 20260830061223 | 65 | 245 | 2.6 | 5.2 | 0.01 | 0.02 | 0.03 | 95 | 1016.6 |
| 20260830060724 | 65 | 264 | 2.6 | 6.1 | 0.01 | 0.02 | 0.03 | 95 | 1016.6 |
| 20260830060224 | 65 | 276 | 2.6 | 6.1 | 0.01 | 0.02 | 0.02 | 95 | 1016.6 |
| 20260830055723 | 65 | 261 | 3.5 | 5.2 | 0.01 | 0.01 | 0.02 | 94 | 1016.6 |
| 20260830055222 | 65 | 268 | 3.5 | 5.2 | 0.01 | 0.01 | 0.02 | 94 | 1016.6 |
| 20260830054723 | 65 | 213 | 2.6 | 5.2 | 0.01 | 0.01 | 0.02 | 95 | 1016.7 |
| 20260830054222 | 65 | 282 | 2.6 | 5.2 | 0.01 | 0.01 | 0.02 | 95 | 1016.7 |
| 20260830053722 | 65 | 272 | 2.6 | 5.2 | 0.01 | 0.01 | 0.02 | 94 | 1016.7 |
| 20260830053223 | 66 | 250 | 1.7 | 6.1 | 0.01 | 0.01 | 0.02 | 94 | 1016.7 |
| 20260830052721 | 66 | 272 | 2.6 | 6.1 | 0.01 | 0.01 | 0.02 | 94 | 1016.7 |
| 20260830052222 | 66 | 275 | 1.7 | 5.2 | 0.01 | 0.01 | 0.02 | 94 | 1016.7 |
| 20260830051722 | 66 | 262 | 1.7 | 3.5 | 0.01 | 0.01 | 0.02 | 94 | 1016.7 |
| 20260830051221 | 66 | 240 | 0.9 | 2.6 | 0.02 | 0.01 | 0.02 | 94 | 1016.7 |
| 20260830050722 | 66 | 245 | 1.7 | 4.3 | 0.02 | 0.01 | 0.02 | 93 | 1016.7 |
| 20260830050444 | 66 | 255 | 0.9 | 4.3 | 0.01 | 0.01 | 0.01 | 93 | 1016.7 |
| 20260830045722 | 66 | 289 | 1.7 | 4.3 | 0.01 | 0.00 | 0.01 | 93 | 1016.7 |
| 20260830045222 | 66 | 250 | 1.7 | 4.3 | 0.01 | 0.00 | 0.01 | 93 | 1016.6 |
| 20260830044948 | 66 | 240 | 1.7 | 5.2 | 0.01 | 0.00 | 0.01 | 93 | 1016.5 |
| 20260830044222 | 66 | 258 | 0.9 | 5.2 | 0.01 | 0.00 | 0.01 | 92 | 1016.5 |
| 20260830043721 | 66 | 259 | 2.6 | 5.2 | 0.01 | 0.00 | 0.01 | 92 | 1016.6 |
| 20260830043220 | 66 | 257 | 2.6 | 6.1 | 0.01 | 0.00 | 0.01 | 92 | 1016.6 |
| 20260830042720 | 67 | 248 | 3.5 | 6.1 | 0.01 | 0.00 | 0.01 | 92 | 1016.5 |
| 20260830042220 | 67 | 252 | 3.5 | 6.1 | 0.01 | 0.00 | 0.01 | 91 | 1016.5 |
| 20260830041720 | 67 | 265 | 3.5 | 6.1 | 0.01 | 0.00 | 0.01 | 91 | 1016.5 |
| 20260830041219 | 67 | 245 | 2.6 | 5.2 | 0.00 | 0.00 | 0.00 | 91 | 1016.5 |
| 20260830040720 | 67 | 248 | 2.6 | 4.3 | 0.00 | 0.00 | 0.00 | 91 | 1016.4 |
| 20260830040219 | 67 | 278 | 2.6 | 5.2 | 0.00 | 0.00 | 0.00 | 90 | 1016.5 |
| 20260830035946 | 67 | 262 | 2.6 | 5.2 | 0.00 | 0.00 | 0.00 | 90 | 1016.5 |
| 20260830035220 | 67 | 240 | 2.6 | 5.2 | 0.00 | 0.00 | 0.00 | 90 | 1016.5 |
| 20260830034943 | 68 | 233 | 1.7 | 3.5 | 0.00 | 0.00 | 0.00 | 90 | 1016.5 |
| 20260830034448 | 68 | 283 | 1.7 | 5.2 | 0.00 | 0.00 | 0.00 | 89 | 1016.5 |
| 20260830033718 | 68 | 265 | 1.7 | 7.8 | 0.00 | 0.00 | 0.00 | 89 | 1016.6 |
| 20260830033218 | 68 | 257 | 2.6 | 7.8 | 0.00 | 0.00 | 0.00 | 88 | 1016.6 |
| 20260830032719 | 68 | 224 | 1.7 | 5.2 | 0.00 | 0.00 | 0.00 | 88 | 1016.6 |
| 20260830032218 | 69 | 262 | 2.6 | 5.2 | 0.00 | 0.00 | 0.00 | 87 | 1016.6 |
| 20260830031718 | 69 | 259 | 1.7 | 3.5 | 0.00 | 0.00 | 0.00 | 87 | 1016.6 |